Starlink 2754

operational
NORAD ID: 48641 Int'l Des: 2021-044 Owner: SPXS Country: US Constellation: starlink
LEOCIRCULARSTARLINK_TYPE

Über Starlink 2754

Beschreibung wird geladen...

Live-Position

3D-Globus wird geladen...

Nächste Überflüge

Höhenverlauf

Altitude vs Time

uPlot chart will show altitude changes over time

Zweizeiliger Elementsatz

1 48641U 21044D 25257.96348678 .00003514 00000-0 25456-3 0 9994
2 48641 53.0568 190.4853 0001436 81.9387 278.1765 15.06417849237229
Epoch: 14. Sept. 2025 • Age: 26 hours

Aktueller Status

Höhe 553.2 km
Geschwindigkeit 7.59 km/s
Subsatellitenpunkt -20.06°S, 3.53°E
Startdatum 26. Mai 2021
Alter 4.3 years
Typ internet

Technische Details

Klassifizierung Payload
Masse 260.00 kg
Trockenmasse 248.00 kg
Gesamtmasse 260.00 kg
Länge 0.20 m
Durchmesser 2.80 m
Spannweite 9.00 m
Form Box + pan
Hersteller SPXS
Bus-Typ Starlink
Phasenstatus In Orbit
Besitzer/Staat SPXS/US

Große Konstellationen

Loading constellations...